This demonstration page uses our WeatherBlox Daily Observations layout. Learn more.

Left ArrowRight Arrow

41.55636, -103.73856

Hourly Observations for March 2, 2021

Temp ( °F °C ) Dew Point ( °F °C ) Humidity (%) Winds ( mph kmh ) Pressure ( in mb ) Visibility ( mi km ) Precip ( " mm )
12:58 am 00:58 Clear 34 0.9 13 -10.3 43 43 W 15 24 30.11 1020 10 16.0934 0 0
1:58 am 01:58 Clear 33 0.3 13 -10.8 43 43 WSW 15 24 30.08 1019 10 16.0934 0 0
2:58 am 02:58 Clear 33 0.6 13 -10.3 44 44 WSW 14 22 30.04 1017 10 16.0934 0 0
3:58 am 03:58 Clear 37 2.6 12 -11.3 35 35 WSW 21 33 30.01 1016 10 16.0934 0 0
4:58 am 04:58 Clear 36 2.1 11 -11.8 35 35 WSW 17 28 30.02 1017 10 16.0934 0 0
5:58 am 05:58 Clear 36 2.4 10 -12.2 33 33 W 23 37 30.04 1017 10 16.0934 0 0
6:58 am 06:58 Sunny 38 3.3 10 -12.4 31 31 W 21 33 30.04 1017 10 16.0934 0 0
7:58 am 07:58 Sunny 43 6.1 10 -12.2 26 26 W 24 39 30.03 1017 10 16.0934 0 0
8:58 am 08:58 Sunny 48 8.7 12 -11.3 23 23 WNW 25 41 30.04 1017 10 16.0934 0 0
9:58 am 09:58 Sunny 53 11.6 11 -11.8 18 18 WNW 29 46 29.98 1015 10 16.0934 0 0
10:58 am 10:58 Sunny 55 13 11 -11.9 17 17 WNW 29 46 29.98 1015 10 16.0934 0 0
11:58 am 11:58 Sunny 57 13.7 12 -11 17 17 NW 26 43 29.98 1015 10 16.0934 0 0
12:58 pm 12:58 Sunny 56 13.4 13 -10.6 18 18 NW 24 39 29.96 1014 10 16.0934 0 0
1:58 pm 13:58 Sunny 56 13.2 13 -10.6 18 18 NNW 22 35 29.93 1014 10 16.0934 0 0
2:58 pm 14:58 Sunny 55 12.9 13 -10.6 19 19 NW 22 35 29.94 1014 10 16.0934 0 0
3:58 pm 15:58 Sunny 54 12.1 12 -11.1 19 19 NW 22 35 29.94 1014 10 16.0934 0 0
4:58 pm 16:58 Sunny 51 10.5 12 -11 21 21 NW 16 26 29.96 1014 10 16.0934 0 0
5:58 pm 17:58 Clear 42 5.4 13 -10.5 31 31 NNW 14 22 30 1016 10 16.0934 0 0
6:58 pm 18:58 Clear 36 2 14 -10 41 41 NNW 10 17 30.03 1017 10 16.0934 0 0
7:58 pm 19:58 Clear 33 0.3 15 -9.2 49 49 NW 10 17 30.03 1017 10 16.0934 0 0
8:58 pm 20:58 Clear 35 1.6 15 -9.7 43 43 WNW 12 19 29.99 1016 10 16.0934 0 0
9:58 pm 21:58 Clear 38 3.4 15 -9.4 39 39 W 16 26 29.96 1014 10 16.0934 0 0
10:58 pm 22:58 Clear 33 0.6 16 -9 49 49 W 12 19 29.96 1014 10 16.0934 0 0
11:58 pm 23:58 Clear 32 -0.2 15 -9.5 50 50 WSW 8 13 29.96 1014 10 16.0934 0 0

Powered by AerisWeather